This is the latest recevied weather packets stored in our database for station/object GW1476. If no packets are shown the sender has not sent any weather packets the latest 10 day(s).
| Time | Temp. | Humidity | Pressure | Rain* | Wind** | Luminosity | Snow |
|---|---|---|---|---|---|---|---|
| 1777480578 | 20° C | 99% | 1011.1 hPa | 1.78 mm | - | - | - |
| 1777480229 | 20° C | 99% | 1011.1 hPa | 1.52 mm | - | - | - |
| 1777477711 | 20.56° C | 99% | 1011.8 hPa | 1.52 mm | - | - | - |
| 1777476262 | 21.11° C | 99% | 1011.8 hPa | 1.52 mm | - | - | - |
| 1777475927 | 20.56° C | 99% | 1012.1 hPa | 1.52 mm | - | - | - |
| 1777474460 | 21.67° C | 96% | 1012.1 hPa | 1.27 mm | - | - | - |
| 1777469810 | 18.33° C | 99% | 1013.2 hPa | 1.27 mm | - | - | - |
| 1777469074 | 17.78° C | 99% | 1013.2 hPa | 1.27 mm | - | - | - |
| 1777467288 | 16.67° C | 99% | 1013.8 hPa | 1.27 mm | - | - | - |
| 1777466905 | 16.11° C | 99% | 1013.5 hPa | 1.27 mm | - | - | - |
| 1777465467 | 16.11° C | 99% | 1013.8 hPa | 1.27 mm | - | - | - |
| 1777464765 | 16.11° C | 99% | 1013.5 hPa | 1.27 mm | - | - | - |
| 1777464394 | 16.11° C | 99% | 1013.5 hPa | 1.27 mm | - | - | - |
| 1777462581 | 15.56° C | 99% | 1013.8 hPa | 1.27 mm | - | - | - |
| 1777453241 | 15° C | 99% | 1013.2 hPa | 1.27 mm | - | - | - |
| 1777452889 | 15° C | 99% | 1013.8 hPa | 1.02 mm | - | - | - |
| 1777452153 | 14.44° C | 99% | 1013.5 hPa | 0 mm | - | - | - |
| 1777448568 | 14.44° C | 99% | 1013.8 hPa | 0 mm | - | - | - |
| 1777448179 | 14.44° C | 99% | 1013.8 hPa | 0 mm | - | - | - |
| 1777445669 | 14.44° C | 99% | 1014.5 hPa | 0 mm | - | - | - |
| 1777445331 | 14.44° C | 99% | 1014.5 hPa | 0 mm | - | - | - |
| 1777443879 | 14.44° C | 99% | 1015.2 hPa | 0 mm | - | - | - |
| 1777442072 | 14.44° C | 99% | 1015.2 hPa | 0 mm | - | - | - |
| 1777441332 | 14.44° C | 99% | 1015.5 hPa | 0 mm | - | - | - |
| 1777438126 | 15° C | 99% | 1015.9 hPa | 0 mm | - | - | - |
* Rain since midnight (hover to see other rain measurements)
** Current wind speed in m/s (hover to see current wind gust speed)